Home   Weather   Canada   Mary's Harbour   Past weeks
Flag for Canada

Past Weather in Mary's Harbour, Newfoundland and Labrador, Canada — Yesterday and Last 2 Weeks

Currently: 36 °F. Light rain. Fog. (Weather station: Mary's Harbour, Canada). See more current weather

Past Weather in Mary's Harbour — Graph

°F

Mary's Harbour Temperature Yesterday

Maximum temperature yesterday: 37 °F (at 7:54 am)
Minimum temperature yesterday: 34 °F (at 8:40 pm)
Average temperature yesterday: 36 °F

High & Low Weather Summary for the Past Weeks

 TemperatureHumidityPressure
High55 °F (May 3, 4:30 pm)100% (Apr 25, 2:30 am)30.25 "Hg (Apr 25, 2:30 am)
Low27 °F (Apr 26, 5:30 am)44% (May 3, 2:30 pm)29.00 "Hg (May 2, 6:30 am)
Average36 °F93%29.77 "Hg
* Reported Apr 24 7:30 pm — May 9 7:33 pm, Mary's Harbour. Weather by CustomWeather, © 2021

Note: Actual official high and low records may vary slightly from our data, if they occured in-between our weather recording intervals... More about our weather records

Mary's Harbour Weather History for the Previous 24 Hours

Scroll right to see more
 ConditionsComfort  
Time TempWeatherWind HumidityBarometerVisibility
7:33 pm
Sun, May 9
34 °FLight rain. Fog.20 mph100%29.55 "Hg1 mi
6:58 pm34 °FLight rain. Fog.20 mph100%29.57 "Hg2 mi
6:30 pm34 °FLight rain. Fog.20 mph100%29.58 "Hg1 mi
6:19 pm34 °FLight rain. Fog.18 mph100%29.58 "Hg1 mi
5:56 pm34 °FLight rain. Fog.21 mph100%29.59 "Hg2 mi
5:30 pm34 °FLight rain. Fog.23 mph100%29.61 "Hg2 mi
5:12 pm34 °FLight rain. Fog.21 mph100%29.62 "Hg2 mi
4:30 pm34 °FLight rain. Fog.17 mph100%29.64 "Hg1 mi
4:27 pm34 °FLight rain. Fog.20 mph100%29.64 "Hg1 mi
4:10 pm34 °FLight rain. Fog.18 mph100%29.65 "Hg2 mi
3:37 pm34 °FLight snow. Mostly cloudy.20 mph93%29.67 "Hg3 mi
3:31 pm34 °FLight snow. Mostly cloudy.22 mph93%29.67 "Hg2 mi
3:12 pm34 °FLight snow. Low clouds.18 mph93%29.69 "Hg1 mi
3:00 pm32 °FLight snow. Low clouds.17 mph100%29.70 "Hg2 mi
2:30 pm32 °FLight snow. Low clouds.15 mph100%29.72 "Hg1 mi
1:30 pm32 °FLight snow. Low clouds.17 mph100%29.77 "Hg1 mi
12:58 pm32 °FLight snow. Low clouds.16 mph100%29.79 "Hg1 mi
12:40 pm32 °FLight snow. Low clouds.13 mph100%29.81 "Hg1 mi
12:12 pm32 °FLight snow. Low clouds.14 mph100%29.83 "Hg1 mi
12:05 pm32 °FLight snow. Low clouds.12 mph100%29.83 "Hg1 mi
11:37 am32 °FLight snow. Low clouds.15 mph100%29.84 "Hg1 mi
10:30 am32 °FLight snow. Low clouds.17 mph100%29.88 "Hg1 mi
10:26 am32 °FLight snow. Mostly cloudy.18 mph100%29.88 "Hg1 mi
10:09 am32 °FLight rain. Ice fog.17 mph100%29.89 "Hg2 mi
9:46 am34 °FLight rain. Fog.17 mph93%29.89 "Hg2 mi
9:17 am34 °FLight snow. Overcast.17 mph93%29.90 "Hg5 mi
8:59 am34 °FLight snow. Overcast.18 mph93%29.91 "Hg9 mi
8:47 am34 °FLight mixture of precip. Overcast.17 mph93%29.91 "Hg9 mi
8:41 am34 °FLight snow. Overcast.17 mph93%29.92 "Hg9 mi
8:30 am34 °FOvercast.16 mph93%29.92 "Hg9 mi
7:30 am34 °FMostly cloudy.17 mph93%29.95 "Hg9 mi
7:06 am34 °FLight snow. Overcast.18 mph93%29.97 "Hg6 mi
6:30 am34 °FOvercast.15 mph87%29.97 "Hg9 mi
5:30 am32 °FOvercast.18 mph93%30.00 "Hg9 mi
4:30 am32 °FOvercast.18 mph93%30.03 "Hg9 mi
3:30 am32 °FOvercast.14 mph100%30.04 "Hg9 mi
2:31 am32 °FOvercast.14 mph93%30.09 "Hg9 mi
1:30 am32 °FLow clouds.12 mph100%30.11 "Hg9 mi
1:16 am34 °FLow clouds.8 mph93%30.11 "Hg9 mi
12:30 am34 °FLight rain. Low clouds.14 mph100%30.14 "Hg8 mi
12:17 am34 °FLight rain. Low clouds.10 mph100%30.16 "Hg8 mi
12:04 am34 °FLight rain. Mostly cloudy.10 mph100%30.18 "Hg9 mi
11:30 pm
Sat, May 8
34 °FLight rain. Low clouds.12 mph100%30.18 "Hg9 mi
11:08 pm34 °FLight rain. Overcast.10 mph100%30.18 "Hg9 mi
9:30 pm34 °FFog.9 mph100%30.19 "Hg6 mi
8:52 pm34 °FMostly cloudy.12 mph100%30.20 "Hg7 mi
8:40 pm34 °FLight rain. Mostly cloudy.8 mph100%30.22 "Hg7 mi
Weather by CustomWeather, © 2021

See weather overview